• în România
  • Lista ţărilor
  • Pe 7 zile
  • Temperatura apei
  • Hartă satelitară
  • Meteo pe hartă
  • Widget-uri
  • user-avatar
    Intrare

    Meteo pe oră la Batina

    Astăzi, 22 Septembrie, Sâmbătă

    Timp Temperatura Precipitaţii Vânt Presiune Umiditate
    00:00 +19°C° 0 mm 2 m/s 674 mmHg 63%
    01:00 +19°C° 0 mm 2 m/s 674 mmHg 64%
    02:00 +19°C° 0 mm 2 m/s 674 mmHg 65%
    03:00 +18°C° 0 mm 2 m/s 674 mmHg 67%
    04:00 +18°C° 0 mm 2 m/s 674 mmHg 67%
    05:00 +18°C° 0 mm 2 m/s 674 mmHg 67%
    06:00 +18°C° 0 mm 2 m/s 674 mmHg 68%
    07:00 +19°C° 0 mm 3 m/s 675 mmHg 62%
    08:00 +20°C° 0 mm 3 m/s 676 mmHg 57%
    09:00 +22°C° 0 mm 3 m/s 676 mmHg 51%
    10:00 +24°C° 0 mm 3 m/s 676 mmHg 46%
    11:00 +25°C° 0 mm 3 m/s 677 mmHg 41%
    12:00 +26°C° 0 mm 3 m/s 677 mmHg 36%
    13:00 +26°C° 0 mm 4 m/s 677 mmHg 35%
    14:00 +26°C° 0 mm 4 m/s 676 mmHg 34%
    15:00 +27°C° 0 mm 5 m/s 676 mmHg 32%
    16:00 +26°C° 0 mm 4 m/s 676 mmHg 36%
    17:00 +25°C° 0 mm 4 m/s 676 mmHg 40%
    18:00 +23°C° 0 mm 4 m/s 676 mmHg 44%
    19:00 +23°C° 0 mm 4 m/s 676 mmHg 48%
    20:00 +22°C° 0 mm 3 m/s 677 mmHg 53%
    21:00 +21°C° 0 mm 2 m/s 677 mmHg 57%
    22:00 +21°C° 0 mm 2 m/s 677 mmHg 60%
    23:00 +20°C° 0 mm 2 m/s 677 mmHg 62%

    Mâine, 23 Septembrie, Duminică

    Timp Temperatura Precipitaţii Vânt Presiune Umiditate
    00:00 +20°C° 0 mm 2 m/s 676 mmHg 64%
    01:00 +21°C° 0 mm 1 m/s 676 mmHg 65%
    02:00 +20°C° 0 mm 1 m/s 676 mmHg 66%
    03:00 +20°C° 0 mm 1 m/s 676 mmHg 66%
    04:00 +20°C° 0 mm 1 m/s 676 mmHg 66%
    05:00 +20°C° 0 mm 1 m/s 676 mmHg 65%
    06:00 +20°C° 0 mm 1 m/s 676 mmHg 64%
    07:00 +21°C° 0 mm 1 m/s 676 mmHg 57%
    08:00 +22°C° 0 mm 1 m/s 677 mmHg 50%
    09:00 +24°C° 0 mm 1 m/s 678 mmHg 43%
    10:00 +25°C° 0 mm 1 m/s 678 mmHg 40%
    11:00 +26°C° 0 mm 1 m/s 678 mmHg 36%
    12:00 +26°C° 0 mm 2 m/s 677 mmHg 33%
    13:00 +27°C° 0 mm 2 m/s 677 mmHg 32%
    14:00 +27°C° 0 mm 3 m/s 677 mmHg 30%
    15:00 +28°C° 0 mm 3 m/s 677 mmHg 29%
    16:00 +27°C° 0 mm 3 m/s 677 mmHg 31%
    17:00 +26°C° 0 mm 3 m/s 676 mmHg 33%
    18:00 +26°C° 0 mm 3 m/s 676 mmHg 35%
    19:00 +25°C° 0 mm 2 m/s 677 mmHg 39%
    20:00 +25°C° 0 mm 2 m/s 677 mmHg 42%
    21:00 +24°C° 0 mm 2 m/s 677 mmHg 46%
    22:00 +23°C° 0 mm 1 m/s 676 mmHg 49%
    23:00 +23°C° 0 mm 1 m/s 676 mmHg 52%

    Poimâine, 24 Septembrie, Luni

    Timp Temperatura Precipitaţii Vânt Presiune Umiditate
    00:00 +22°C° 0 mm 1 m/s 676 mmHg 55%
    01:00 +22°C° 0 mm 1 m/s 675 mmHg 56%
    02:00 +19°C° 0 mm 0 m/s 675 mmHg 58%
    03:00 +19°C° 0 mm 0 m/s 675 mmHg 60%
    04:00 +19°C° 0 mm 0 m/s 675 mmHg 59%
    05:00 +21°C° 0 mm 1 m/s 675 mmHg 58%
    06:00 +21°C° 0 mm 1 m/s 675 mmHg 57%
    07:00 +22°C° 0 mm 1 m/s 676 mmHg 52%
    08:00 +24°C° 0 mm 1 m/s 676 mmHg 46%
    09:00 +25°C° 0 mm 1 m/s 677 mmHg 40%
    10:00 +26°C° 0 mm 1 m/s 677 mmHg 37%
    11:00 +27°C° 0 mm 1 m/s 677 mmHg 34%
    12:00 +28°C° 0 mm 1 m/s 677 mmHg 30%
    13:00 +28°C° 0 mm 2 m/s 676 mmHg 29%
    14:00 +28°C° 0 mm 2 m/s 676 mmHg 28%
    15:00 +29°C° 0 mm 3 m/s 676 mmHg 27%
    16:00 +28°C° 0 mm 3 m/s 676 mmHg 31%
    17:00 +27°C° 0 mm 4 m/s 676 mmHg 34%
    18:00 +26°C° 0 mm 4 m/s 675 mmHg 37%
    19:00 +25°C° 0 mm 3 m/s 676 mmHg 42%
    20:00 +25°C° 0 mm 3 m/s 676 mmHg 47%
    21:00 +24°C° 0 mm 2 m/s 676 mmHg 53%
    22:00 +23°C° 0 mm 2 m/s 675 mmHg 55%
    23:00 +23°C° 0 mm 2 m/s 675 mmHg 58%

    25 Septembrie, Marţi

    Timp Temperatura Precipitaţii Vânt Presiune Umiditate
    00:00 +21°C° 0 mm 2 m/s 675 mmHg 61%
    01:00 +22°C° 0 mm 1 m/s 675 mmHg 62%
    02:00 +22°C° 0 mm 1 m/s 675 mmHg 64%
    03:00 +21°C° 0 mm 1 m/s 674 mmHg 65%
    04:00 +21°C° 0 mm 1 m/s 674 mmHg 65%
    05:00 +21°C° 0 mm 1 m/s 674 mmHg 66%
    06:00 +21°C° 0 mm 1 m/s 675 mmHg 66%
    07:00 +22°C° 0 mm 1 m/s 675 mmHg 59%
    08:00 +24°C° 0 mm 1 m/s 676 mmHg 53%
    09:00 +25°C° 0 mm 1 m/s 676 mmHg 46%
    10:00 +26°C° 0 mm 1 m/s 676 mmHg 42%
    11:00 +27°C° 0 mm 2 m/s 676 mmHg 39%
    12:00 +28°C° 0 mm 2 m/s 676 mmHg 35%
    13:00 +27°C° 0.2 mm 2 m/s 676 mmHg 36%
    14:00 +27°C° 0.2 mm 2 m/s 676 mmHg 36%
    15:00 +27°C° 0.2 mm 2 m/s 675 mmHg 37%
    16:00 +27°C° 0.4 mm 2 m/s 675 mmHg 40%
    17:00 +26°C° 0.4 mm 2 m/s 675 mmHg 44%
    18:00 +25°C° 0.4 mm 2 m/s 675 mmHg 47%
    19:00 +25°C° 0.6 mm 2 m/s 676 mmHg 50%
    20:00 +24°C° 0.6 mm 2 m/s 676 mmHg 54%
    21:00 +23°C° 0.6 mm 2 m/s 676 mmHg 57%
    22:00 +23°C° 0.7 mm 2 m/s 676 mmHg 57%
    23:00 +23°C° 0.7 mm 1 m/s 676 mmHg 58%

    26 Septembrie, Miercuri

    Timp Temperatura Precipitaţii Vânt Presiune Umiditate
    00:00 +23°C° 0.7 mm 1 m/s 676 mmHg 59%
    01:00 +22°C° 0.2 mm 1 m/s 675 mmHg 60%
    02:00 +22°C° 0.2 mm 1 m/s 675 mmHg 62%
    03:00 +22°C° 0.2 mm 1 m/s 675 mmHg 63%
    04:00 +21°C° 0.3 mm 1 m/s 675 mmHg 65%
    05:00 +21°C° 0.3 mm 1 m/s 675 mmHg 67%
    06:00 +21°C° 0.3 mm 1 m/s 675 mmHg 69%
    07:00 +22°C° 0.4 mm 1 m/s 676 mmHg 65%
    08:00 +22°C° 0.4 mm 1 m/s 676 mmHg 61%
    09:00 +23°C° 0.4 mm 1 m/s 677 mmHg 57%
    10:00 +24°C° 0.8 mm 1 m/s 677 mmHg 53%
    11:00 +25°C° 0.8 mm 2 m/s 677 mmHg 49%
    12:00 +25°C° 0.8 mm 2 m/s 677 mmHg 46%
    13:00 +25°C° 0.3 mm 2 m/s 677 mmHg 45%
    14:00 +25°C° 0.3 mm 2 m/s 676 mmHg 45%
    15:00 +26°C° 0.3 mm 2 m/s 676 mmHg 44%
    16:00 +25°C° 0.8 mm 2 m/s 676 mmHg 47%
    17:00 +24°C° 0.8 mm 3 m/s 676 mmHg 51%
    18:00 +24°C° 0.8 mm 3 m/s 676 mmHg 54%
    19:00 +24°C° 0.3 mm 3 m/s 676 mmHg 55%
    20:00 +23°C° 0.3 mm 2 m/s 677 mmHg 56%
    21:00 +23°C° 0.3 mm 2 m/s 677 mmHg 57%
    22:00 +23°C° 0 mm 2 m/s 677 mmHg 59%
    23:00 +21°C° 0 mm 2 m/s 676 mmHg 61%

    27 Septembrie, Joi

    Timp Temperatura Precipitaţii Vânt Presiune Umiditate
    00:00 +21°C° 0 mm 2 m/s 676 mmHg 62%
    01:00 +21°C° 0.1 mm 1 m/s 676 mmHg 65%
    02:00 +21°C° 0.1 mm 1 m/s 676 mmHg 68%
    03:00 +20°C° 0.1 mm 1 m/s 676 mmHg 71%
    04:00 +20°C° 0.2 mm 1 m/s 676 mmHg 72%
    05:00 +20°C° 0.2 mm 1 m/s 676 mmHg 73%
    06:00 +20°C° 0.2 mm 1 m/s 676 mmHg 74%
    07:00 +21°C° 0 mm 1 m/s 677 mmHg 67%
    08:00 +22°C° 0 mm 1 m/s 677 mmHg 60%
    09:00 +23°C° 0 mm 2 m/s 677 mmHg 54%
    10:00 +24°C° 0 mm 2 m/s 677 mmHg 50%
    11:00 +25°C° 0 mm 2 m/s 677 mmHg 46%
    12:00 +25°C° 0 mm 2 m/s 677 mmHg 43%
    13:00 +25°C° 0.2 mm 2 m/s 677 mmHg 42%
    14:00 +26°C° 0.2 mm 2 m/s 677 mmHg 42%
    15:00 +26°C° 0.2 mm 2 m/s 676 mmHg 41%
    16:00 +25°C° 0.1 mm 2 m/s 676 mmHg 44%
    17:00 +25°C° 0.1 mm 2 m/s 676 mmHg 46%
    18:00 +24°C° 0.1 mm 2 m/s 676 mmHg 48%
    19:00 +24°C° 0 mm 2 m/s 676 mmHg 51%
    20:00 +23°C° 0 mm 2 m/s 676 mmHg 54%
    21:00 +23°C° 0 mm 2 m/s 676 mmHg 57%
    22:00 +21°C° 0 mm 2 m/s 676 mmHg 60%
    23:00 +21°C° 0 mm 2 m/s 675 mmHg 62%
    Arată mai mult